TimeCST,TemperatureF,Dew PointF,Humidity,Sea Level PressureIn,VisibilityMPH,Wind Direction,Wind SpeedMPH,Gust SpeedMPH,PrecipitationIn,Events,Conditions,WindDirDegrees,DateUTC
12:00 AM,70,70,99,29.78,9,Calm,Calm,,,Fog,Light Fog,,2011-10-05 06:00:00
12:00 AM,69.8,69.8,100,30.02,6.2,Calm,Calm,-,N/A,,Mostly Cloudy,0,2011-10-05 06:00:00
1:00 AM,68.0,68.0,100,30.01,6.2,Calm,Calm,-,N/A,,Mostly Cloudy,0,2011-10-05 07:00:00
2:00 AM,68.0,68.0,100,29.99,1.2,Calm,Calm,-,N/A,,Scattered Clouds,0,2011-10-05 08:00:00
3:00 AM,70,70,99,29.76,5,Calm,Calm,,,Fog,Light Fog,,2011-10-05 09:00:00
3:00 AM,68.0,68.0,100,29.98,5.0,Calm,Calm,-,N/A,,Mostly Cloudy,0,2011-10-05 09:00:00
4:00 AM,68.0,68.0,100,29.99,6.2,Calm,Calm,-,N/A,,Mostly Cloudy,0,2011-10-05 10:00:00
5:00 AM,66.2,66.2,100,29.99,6.2,Calm,Calm,-,N/A,,Mostly Cloudy,0,2011-10-05 11:00:00
6:00 AM,66,66,100,29.82,9,East,3.5,,,,Scattered Clouds,100,2011-10-05 12:00:00
6:00 AM,66.2,66.2,100,30.01,6.2,East,3.5,-,N/A,,Mostly Cloudy,100,2011-10-05 12:00:00
7:00 AM,71.6,71.6,100,30.03,6.2,Calm,Calm,-,N/A,,Scattered Clouds,0,2011-10-05 13:00:00
7:25 AM,71.6,71.6,100,30.03,6.2,West,4.6,-,N/A,,Scattered Clouds,260,2011-10-05 13:25:00
8:00 AM,73.4,71.6,94,30.06,6.2,WSW,4.6,-,N/A,,Scattered Clouds,250,2011-10-05 14:00:00
9:00 AM,75,72,86,29.90,7,WSW,3.5,,,,Haze,250,2011-10-05 15:00:00
9:00 AM,75.2,71.6,89,30.05,6.2,WSW,3.5,-,N/A,,Scattered Clouds,250,2011-10-05 15:00:00
10:00 AM,77.0,71.6,83,30.04,6.2,WSW,8.1,-,N/A,,Scattered Clouds,240,2011-10-05 16:00:00
11:00 AM,78.8,71.6,78,30.01,6.2,WSW,6.9,-,N/A,,Scattered Clouds,240,2011-10-05 17:00:00
12:00 PM,81,72,66,29.81,7,WSW,9.2,,,,Haze,240,2011-10-05 18:00:00
12:00 PM,80.6,71.6,74,29.99,6.2,WSW,9.2,-,N/A,,Scattered Clouds,240,2011-10-05 18:00:00
1:00 PM,77.0,71.6,83,29.97,6.2,WSW,9.2,-,N/A,,Mostly Cloudy,240,2011-10-05 19:00:00
1:40 PM,75.2,73.4,94,29.94,6.2,WSW,9.2,-,N/A,Rain,Rain,240,2011-10-05 19:40:00
2:00 PM,73.4,73.4,100,29.94,6.2,SW,9.2,-,N/A,Rain-Thunderstorm,Light Thunderstorms and Rain,230,2011-10-05 20:00:00
2:20 PM,73.4,73.4,100,29.94,4.3,West,8.1,-,N/A,Rain-Thunderstorm,Thunderstorms and Rain,260,2011-10-05 20:20:00
3:00 PM,71.6,71.6,100,29.94,3.1,West,6.9,-,N/A,Rain-Thunderstorm,Light Thunderstorms and Rain,260,2011-10-05 21:00:00
3:50 PM,69.8,69.8,100,29.95,1.2,West,9.2,-,N/A,,Mostly Cloudy,270,2011-10-05 21:50:00
4:00 PM,69.8,69.8,100,29.95,1.2,West,9.2,-,N/A,,Mostly Cloudy,270,2011-10-05 22:00:00
5:00 PM,69.8,69.8,100,29.97,1.2,WNW,2.3,-,N/A,,Mostly Cloudy,290,2011-10-05 23:00:00
6:00 PM,68.0,68.0,100,30.01,1.2,Calm,Calm,-,N/A,Rain,Light Rain,0,2011-10-06 00:00:00
6:53 PM,68.0,68.0,100,30.01,1.2,North,-9999.0,-,N/A,Rain,Light Rain,0,2011-10-06 00:53:00
7:00 PM,68.0,68.0,100,30.01,1.2,North,-9999.0,-,N/A,Rain,Light Rain,0,2011-10-06 01:00:00
8:00 PM,68.0,68.0,100,30.03,1.2,East,3.5,-,N/A,Rain,Rain,100,2011-10-06 02:00:00
8:28 PM,68.0,68.0,100,30.03,6.2,ENE,4.6,-,N/A,,Mostly Cloudy,70,2011-10-06 02:28:00
9:00 PM,68,68,100,29.85,9,East,4.6,,,Rain,Light Rain,100,2011-10-06 03:00:00
9:00 PM,68.0,68.0,100,30.02,6.2,East,4.6,-,N/A,,Mostly Cloudy,100,2011-10-06 03:00:00
10:00 PM,68.0,68.0,100,29.99,6.2,East,3.5,-,N/A,,Mostly Cloudy,80,2011-10-06 04:00:00
11:00 PM,68.0,68.0,100,29.98,6.2,Calm,Calm,-,N/A,,Mostly Cloudy,0,2011-10-06 05:00:00